Other Surface Observations
Issued by NWS Tucson, AZ

Home | Current Version | Previous Version | Text Only | Print | Product List | Glossary On
Versions: 1 2 3 4 5 6 7 8 9 10 11 12 13 14 15 16 17 18 19 20 21 22 23 24 25 26 27 28 29 30 31 32 33 34 35 36 37 38 39 40 41 42 43 44 45 46 47 48 49 50
000
SXUS55 KTWC 212015
OSOTWC

WEATHER ROUNDUP FOR SOUTHEAST ARIZONA
NATIONAL WEATHER SERVICE TUCSON AZ
115 PM MST SUN DEC 21 2014

AZZ504>506-514-212115-
LOCATION       SKY/WX    TMP DP  RH WIND       PRES   REMARKS
TUCSON         SUNNY     59  36  42 CALM      30.07F
DAVIS-MONTHAN  SUNNY     58  35  41 SW3       30.03F
CHILDRENS PARK N/A       54  37  53 S4                PIMA CO DEQ
ALVERNON/22ND  N/A      N/A N/A N/A N/A               PIMA CO DEQ
CHERRY/GLENN   N/A      N/A N/A N/A N/A               PIMA CO DEQ
TANGERINE      N/A       57 N/A N/A S4                PIMA CO DEQ
CONTL RANCH    N/A       57  39  50 SE4               PIMA CO DEQ
GRANT/1ST      N/A       56  37  49 S3                PIMA CO DEQ
CRAYCROFT/22ND N/A      N/A N/A N/A N/A               PIMA CO DEQ
GOLFLINKS/KOLB N/A       55  37  51 S4                PIMA CO DEQ
AJO/12TH       N/A       56  38  50 S7                PIMA CO DEQ
SAGUARO EAST   N/A      N/A N/A N/A N/A               PIMA CO DEQ
FAIRGROUNDS    N/A       55 N/A N/A S3                PIMA CO DEQ
SAGUARO        N/A       61  39  44 S3                *SABINO CYN
SAN CARLOS     N/A       54  37  53 S3                *SAN CARLOS
GREEN VALLEY   N/A       57  33  40 SE2               PIMA CO DEQ
HORSE CAMP CYN N/A       50  33  52 SW5               *ARAVAIPA CYN
RINCON MTNS    N/A       54  27  35 W3                *NR MANNING CAMP
$$

AZZ509>511-212115-
LOCATION       SKY/WX    TMP DP  RH WIND       PRES   REMARKS
SAFFORD        SUNNY     52  37  56 VRB6      30.05F
STRAY HORSE    N/A       45  26  47 W9G13             *
TRAIL CABIN    N/A       53  28  38 W7G14             *N OF GRANVILLE
BLACK HILLS    N/A       54  40  60 W3                *N OF FT THOMAS
DRY LAKE       N/A       49  24  37 NW5G10            *NATANES MTNS
NOON CREEK     N/A       53  35  50 NE2G10            *PINALENO MTNS
COLUMBINE      N/A       50  24  36 NW5G12            *PINALENO MTNS
GUTHRIE        N/A       47  22  37 W9G22             *SW OF GUTHRIE
$$

AZZ502-503-513-212115-
LOCATION       SKY/WX    TMP DP  RH WIND       PRES   REMARKS
NOGALES        SUNNY     63  33  32 VRB6      30.06F
SELLS          N/A       63  38  39 S5                *
SASABE         N/A       61  35  37 NW3G11            *ALTAR VLY
HOPKINS        N/A       51  31  46 W6G11             *SANTA RITA MTNS
CARR CYN       N/A       53  31  42 NE3               *W OF HEREFORD
$$

AZZ507-508-512-212115-
LOCATION       SKY/WX    TMP DP  RH WIND       PRES   REMARKS
SIERRA VISTA   MOSUNNY   58  28  32 VRB5      30.07F
DOUGLAS        CLOUDY    54  28  36 S3        30.08F
EMPIRE MTNS    N/A       60  28  30 E3                *LAS CIENEGAS NCA
MULESHOE RANCH N/A       51  33  50 CALM              *PRESERVE
HEADQUARTERS   N/A       53  26  35 W4                *CHIRICAHUA MTNS
$$

.............................NOTES.............................
THIS IS AN AUTOMATED COLLECTIVE WITH MINIMAL QUALITY CONTROL.
PIMA CO DEQ SITES HAVE NONSTANDARD WIND SENSOR HEIGHTS.
PIMA CO DEQ SITES DO NOT REPORT WIND GUSTS.
* INDICATES WIND SENSORS LOCATED AT 20 FEET INSTEAD OF 33 FEET.
..............................KEY..............................
SKY/WX - SKY CONDITION/WEATHER
TMP    - TEMPERATURE IN FAHRENHEIT
DP     - DEWPOINT IN FAHRENHEIT
RH     - RELATIVE HUMIDITY IN PERCENT
WIND   - DIRECTION AND SPEED IN MILES PER HOUR (MPH)
VRB    - VARIABLE WIND DIRECTION
PRES   - MEAN SEA LEVEL PRESSURE IN INCHES OF MERCURY
         F - FALLING PRESSURE   R - RISING PRESSURE
         S - STEADY PRESSURE
VSB    - VISIBILITY IN MILES
HX     - HEAT INDEX IN FAHRENHEIT
WCI    - WIND CHILL INDEX IN FAHRENHEIT
N/A    - NOT AVAILABLE
AFB    - AIR FORCE BASE
         DAVIS-MONTHAN IS DAVIS-MONTHAN AIR FORCE BASE
CYN    - CANYON
MTNS   - MOUNTAINS
NCA    - NATIONAL CONSERVATION AREA
NR     - NEAR
VLY    - VALLEY
CONTL  - CONTINENTAL
PIMA CO DEQ - PIMA COUNTY DEPT OF ENVIRONMENTAL QUALITY



USA.gov is the U.S. government's official web portal to all federal, state and local government web resources and services.